TimeAST,TemperatureF,Dew PointF,Humidity,Sea Level PressureIn,VisibilityMPH,Wind Direction,Wind SpeedMPH,Gust SpeedMPH,PrecipitationIn,Events,Conditions,WindDirDegrees,DateUTC
12:55 AM,72.1,51.8,49,29.89,6.2,NW,8.1,-,N/A,,Clear,310,2013-10-09 21:55:00
1:55 AM,70.9,52.2,51,29.89,6.2,WNW,6.9,-,N/A,,Clear,290,2013-10-09 22:55:00
2:55 AM,69.8,53.4,56,29.89,6.2,WNW,9.2,-,N/A,,Clear,300,2013-10-09 23:55:00
3:55 AM,71.1,55.8,58,29.90,6.2,WNW,9.2,-,N/A,,Clear,290,2013-10-10 00:55:00
4:55 AM,69.6,56.8,64,29.91,6.2,WNW,9.2,-,N/A,,Clear,290,2013-10-10 01:55:00
5:55 AM,69.8,56.1,62,29.94,6.2,WNW,9.2,-,N/A,,Clear,290,2013-10-10 02:55:00
6:55 AM,73.4,56.1,55,29.94,6.2,WNW,10.4,-,N/A,,Clear,300,2013-10-10 03:55:00
7:55 AM,79.3,58.8,49,29.96,6.2,NW,16.1,-,N/A,,Clear,320,2013-10-10 04:55:00
8:55 AM,83.8,58.8,43,29.96,6.2,NW,17.3,-,N/A,,Clear,310,2013-10-10 05:55:00
9:55 AM,86.2,59.0,40,29.95,6.2,NNW,18.4,23.0,N/A,,Clear,330,2013-10-10 06:55:00
10:55 AM,88.0,59.0,37,29.93,6.2,NNW,17.3,-,N/A,,Clear,330,2013-10-10 07:55:00
11:55 AM,89.2,58.5,35,29.91,6.2,NNW,20.7,-,N/A,,Clear,330,2013-10-10 08:55:00
12:55 PM,89.6,58.1,34,29.89,6.2,NNW,17.3,-,N/A,,Clear,330,2013-10-10 09:55:00
1:55 PM,89.8,58.8,35,29.88,6.2,North,20.7,-,N/A,,Clear,350,2013-10-10 10:55:00
2:55 PM,89.1,59.2,36,29.88,6.2,North,20.7,26.5,N/A,,Clear,360,2013-10-10 11:55:00
3:55 PM,86.9,60.8,41,29.89,6.2,NNW,20.7,-,N/A,,Clear,340,2013-10-10 12:55:00
4:55 PM,83.8,61.2,46,29.90,6.2,NNW,18.4,-,N/A,,Clear,340,2013-10-10 13:55:00
5:55 PM,81.3,60.8,50,29.91,6.2,North,16.1,-,N/A,,Clear,350,2013-10-10 14:55:00
6:55 PM,79.2,61.0,54,29.93,6.2,NNW,13.8,-,N/A,,Clear,340,2013-10-10 15:55:00
7:55 PM,77.7,61.2,57,29.94,6.2,NNW,13.8,-,N/A,,Clear,340,2013-10-10 16:55:00
8:55 PM,76.1,60.6,59,29.94,6.2,NW,9.2,-,N/A,,Clear,320,2013-10-10 17:55:00
9:55 PM,74.8,61.3,63,29.94,6.2,NW,9.2,-,N/A,,Clear,310,2013-10-10 18:55:00
10:55 PM,72.1,61.9,70,29.92,6.2,WNW,9.2,-,N/A,,Clear,300,2013-10-10 19:55:00
11:55 PM,70.3,61.5,74,29.91,6.2,WNW,6.9,-,N/A,,Clear,300,2013-10-10 20:55:00